Regional Weather Roundup
Issued by NWS Lake Charles, LA

Home | Current Version | Previous Version | Text Only | Print | Product List | Glossary On
Versions: 1 2 3 4 5 6 7 8 9 10 11 12 13 14 15 16 17 18 19 20 21 22 23 24 25 26 27 28 29 30 31 32 33 34 35 36 37 38 39 40 41 42 43 44 45 46 47 48 49 50
000
ASUS44 KLCH 260210
RWRLCH
REGIONAL WEATHER ROUNDUP
NATIONAL WEATHER SERVICE LAKE CHARLES LA
900 PM CDT WED MAY 25 2016

Note: "fair" indicates few or no clouds below 12,000 feet with no
significant weather and/or obstructions to visibility.


ACROSS SOUTHEAST TEXAS

CITY           SKY/WX    TMP DP  RH WIND       PRES   REMARKS
BEAUMONT       MOCLDY    80  74  81 SE15      30.02F
BEAUMONT CITY  FAIR      80  75  84 SE12      30.02S
ORANGE         PTCLDY    79  73  82 S10G17    30.04F
JASPER         MOCLDY    79  73  81 SE7       30.03S
$$

ACROSS CENTRAL LOUISIANA

CITY           SKY/WX    TMP DP  RH WIND       PRES   REMARKS
LEESVILLE      CLOUDY    80  74  82 SE10      30.01R
FULLERTON      NOT AVBL
ALEXANDRIA INT CLOUDY    81  73  76 S8        30.03R
ESLER FIELD    CLOUDY    78  73  84 CALM      30.04R
DERIDDER       FAIR      81  74  81 S12       30.03S
OAKDALE        PTCLDY    78  74  87 SE3       30.03S
OPELOUSAS      FAIR      79  73  82 SE8       30.05S
$$

ACROSS SOUTHWEST AND SOUTH CENTRAL LOUISIANA

CITY           SKY/WX    TMP DP  RH WIND       PRES   REMARKS
SULPHUR        PTCLDY    81  74  81 SE15      30.04F
LAKE CHARLES   PTCLDY    79  74  84 S8        30.04R
CHENNAULT INT  NOT AVBL
CAMERON PHI      N/A     81  77  89 S14G21    30.07F
DEQUINCY       FAIR      78  74  88 SE10      30.03S
JENNINGS       FAIR      79  73  83 S8        30.05S
LAFAYETTE      MOCLDY    80  74  81 S8        30.06S
NEW IBERIA     CLOUDY    79  74  84 S8        30.07S
ABBEVILLE      FAIR      78  75  92 S8        30.07S
PATTERSON      CLEAR     78  75  90 SE7       30.09
SALT POINT       N/A     79  76  90 SE6       30.07R
$$

SELECTED SITES ACROSS THE REGION

CITY           SKY/WX    TMP DP  RH WIND       PRES   REMARKS
HOUSTON BUSH   CLOUDY    80  73  79 S10       29.99R
HOUSTON HOBBY  MOCLDY    81  76  84 SE12G18   29.99S
GALVESTON      PTCLDY    80  78  94 SE15      30.02F
COLLEGE STAT   CLOUDY    81  74  79 S7        29.98R
CONROE         CLOUDY    80  74  81 S12       30.01R
HUNTSVILLE     CLOUDY    83  74  74 VRB5      29.99R
LUFKIN         CLOUDY    79  73  82 S6        30.00R
SHREVEPORT     CLOUDY    83  74  74 S9        29.99R
MONROE         PTCLDY    83  74  74 SE5       30.03R
NATCHEZ MS     CLOUDY    81  72  74 SE8       30.08R
BATON ROUGE    PTCLDY    82  70  66 S7        30.08R
N.O. INTL ARPT MOCLDY    79  72  79 S8        30.10S
SLIDELL        CLEAR     77  72  84 SE5       30.11S
$$

MARINE REPORTS

STATION/POSITION TIME  SKY/WX   TEMP    WIND        PRES    VSBY
                                AIR SEA DIR/SP/G
                 (UTC)          (F)     (DEG/KT/KT) (MB)    (MI)
BUOY 30 S HIGH I 0150            80 81  150/ 16/ 17 1016.2F
WVE H/P(F/S)=  4/ 7

SEA RIM ST PARK  0200            80     150/ 17/ 20 1016.8F
PORT ARTHUR      0100               79              1017.3S
SABINE PASS N    0100               83              1018.6R
TEXAS POINT      NOT AVBL
CALCASIEU PASS   0100               82              1016.7F
LK CHARLES BEACH 0100               77              1017.5F
MARSH ISLAND     NOT AVBL
FRESH WATER LOCK 0100               83              1019.0F
AMERADA PASS     0100               80              1018.4F
$$



USA.gov is the U.S. government's official web portal to all federal, state and local government web resources and services.